Weather History for KI39 - December, 2013

Change the Weather History Date:

Monday, December 2, 2013

  Actual Average (KLOZ) Record (KLOZ)
Temperature  
Mean Temperature 47 °F 42 °F  
Max Temperature 55 °F 52 °F 78 °F (1982)
Min Temperature 39 °F 32 °F 10 °F (1960)
Degree Days  
Heating Degree Days 18 23  
Month to date heating degree days 46  
Since 1 July heating degree days 876  
Cooling Degree Days 0 0  
Month to date cooling degree days 0  
Moisture  
Dew Point 37 °F    
Average Humidity 68    
Maximum Humidity 81    
Minimum Humidity 54    
Precipitation  
Precipitation 0.00 in 0.14 in 2.33 in (1991)
Month to date precipitation 0.28  
Sea Level Pressure  
Sea Level Pressure 29.85 in    
Wind  
Wind Speed 2 mph (South)    
Max Wind Speed 7 mph    
Max Gust Speed -    
Visibility 10 miles    
Events      
T = Trace of Precipitation, MM = Missing Value Source: NWS Daily Summary

Daily Weather History Graph

Daily Weather History Graph

Search for Another Location

Airport or City:

Trip Planner

Search our weather history database for the weather conditions in past years. The results will help you decide how hot, cold, wet, or windy it might be!

Date:

Astronomy

Dec. 02, 2013 Rise Set
Actual Time 7:34 AM EST 5:18 PM EST
Civil Twilight 7:05 AM EST 5:47 PM EST
Nautical Twilight 6:33 AM EST 6:20 PM EST
Astronomical Twilight 6:01 AM EST 6:51 PM EST
Moon 6:59 AM EST (12/2) 5:20 PM EST (12/2)
Length of Visible Light 10h 41m
Length of Day
9h 44m
Waning Crescent, 0% of the Moon is Illuminated
Dec 2
Waning Crescent
Dec 2
New
Dec 9
First Quarter
Dec 17
Full
Dec 25
Last Quarter

Hourly Weather History & Observations

Time (EST) Temp. Windchill Dew Point Humidity Pressure Visibility Wind Dir Wind Speed Gust Speed Precip Events Conditions
12:15 AM 42.8 °F - 32.0 °F 66% 29.97 in 10.0 mi Calm Calm - N/A   Overcast
12:35 AM 42.8 °F 41.1 °F 32.0 °F 66% 29.96 in 10.0 mi SE 3.5 mph - N/A   Overcast
12:55 AM 44.6 °F 43.1 °F 32.0 °F 61% 29.96 in 10.0 mi South 3.5 mph - N/A   Overcast
1:15 AM 44.6 °F - 32.0 °F 61% 29.95 in 10.0 mi Calm Calm - N/A   Overcast
1:35 AM 42.8 °F - 32.0 °F 66% 29.95 in 10.0 mi Calm Calm - N/A   Overcast
1:55 AM 41.0 °F - 32.0 °F 70% 29.94 in 10.0 mi Calm Calm - N/A   Overcast
2:15 AM 41.0 °F - 32.0 °F 70% 29.94 in 10.0 mi Calm Calm - N/A   Overcast
2:35 AM 41.0 °F - 32.0 °F 70% 29.93 in 10.0 mi Calm Calm - N/A   Overcast
2:55 AM 39.2 °F - 32.0 °F 75% 29.93 in 10.0 mi Calm Calm - N/A   Overcast
3:15 AM 41.0 °F - 32.0 °F 70% 29.93 in 10.0 mi Calm Calm - N/A   Overcast
3:35 AM 39.2 °F - 32.0 °F 75% 29.92 in 10.0 mi Calm Calm - N/A   Overcast
3:55 AM 41.0 °F 39.0 °F 32.0 °F 70% 29.91 in 10.0 mi SE 3.5 mph - N/A   Overcast
4:15 AM 41.0 °F 39.0 °F 32.0 °F 70% 29.91 in 10.0 mi SE 3.5 mph - N/A   Overcast
4:35 AM 39.2 °F - 32.0 °F 75% 29.90 in 10.0 mi Calm Calm - N/A   Overcast
4:55 AM 41.0 °F - 32.0 °F 70% 29.90 in 10.0 mi Calm Calm - N/A   Overcast
5:15 AM 41.0 °F - 32.0 °F 70% 29.90 in 10.0 mi Calm Calm - N/A   Overcast
5:35 AM 41.0 °F - 32.0 °F 70% 29.90 in 10.0 mi Calm Calm - N/A   Overcast
5:55 AM 39.2 °F - 32.0 °F 75% 29.89 in 10.0 mi Calm Calm - N/A   Overcast
6:15 AM 39.2 °F - 32.0 °F 75% 29.90 in 10.0 mi Calm Calm - N/A   Overcast
6:35 AM 39.2 °F - 32.0 °F 75% 29.89 in 10.0 mi Calm Calm - N/A   Overcast
6:55 AM 41.0 °F - 32.0 °F 70% 29.90 in 10.0 mi Calm Calm - N/A   Overcast
7:15 AM 41.0 °F - 33.8 °F 76% 29.90 in 10.0 mi Calm Calm - N/A   Overcast
7:35 AM 39.2 °F - 33.8 °F 81% 29.90 in 10.0 mi Calm Calm - N/A   Overcast
7:55 AM 41.0 °F 38.0 °F 33.8 °F 76% 29.89 in 10.0 mi ESE 4.6 mph - N/A   Overcast
8:15 AM 41.0 °F 38.0 °F 33.8 °F 76% 29.88 in 10.0 mi SSE 4.6 mph - N/A   Overcast
8:35 AM 41.0 °F 38.0 °F 33.8 °F 76% 29.89 in 10.0 mi SSE 4.6 mph - N/A   Overcast
8:55 AM 42.8 °F - 35.6 °F 76% 29.89 in 10.0 mi Calm Calm - N/A   Overcast
9:15 AM 44.6 °F - 35.6 °F 71% 29.89 in 10.0 mi Calm Calm - N/A   Overcast
9:35 AM 44.6 °F - 37.4 °F 76% 29.89 in 10.0 mi Calm Calm - N/A   Overcast
9:55 AM 46.4 °F 45.2 °F 37.4 °F 71% 29.89 in 10.0 mi SSW 3.5 mph - N/A   Overcast
10:15 AM 48.2 °F - 35.6 °F 62% 29.88 in 10.0 mi South 4.6 mph - N/A   Overcast
10:35 AM 50.0 °F - 35.6 °F 58% 29.88 in 10.0 mi SSE 3.5 mph - N/A   Overcast
10:55 AM 51.8 °F - 35.6 °F 54% 29.87 in 10.0 mi SSW 5.8 mph - N/A   Scattered Clouds
11:15 AM 50.0 °F - 35.6 °F 58% 29.87 in 10.0 mi SW 4.6 mph - N/A   Scattered Clouds
11:35 AM 51.8 °F - 37.4 °F 58% 29.86 in 10.0 mi WSW 5.8 mph - N/A   Overcast
11:55 AM 51.8 °F - 37.4 °F 58% 29.85 in 10.0 mi Calm Calm - N/A   Overcast
12:15 PM 53.6 °F - 37.4 °F 54% 29.84 in 10.0 mi South 6.9 mph - N/A   Overcast
12:35 PM 53.6 °F - 37.4 °F 54% 29.84 in 10.0 mi SSW 3.5 mph - N/A   Overcast
12:55 PM 53.6 °F - 37.4 °F 54% 29.82 in 10.0 mi South 6.9 mph - N/A   Overcast
1:15 PM 53.6 °F - 37.4 °F 54% 29.81 in 10.0 mi SSE 4.6 mph - N/A   Overcast
1:35 PM 53.6 °F - 37.4 °F 54% 29.80 in 10.0 mi SSW 4.6 mph - N/A   Overcast
1:55 PM 53.6 °F - 39.2 °F 58% 29.80 in 10.0 mi SSW 5.8 mph - N/A   Mostly Cloudy
2:15 PM 53.6 °F - 39.2 °F 58% 29.79 in 10.0 mi South 5.8 mph - N/A   Overcast
2:35 PM 53.6 °F - 39.2 °F 58% 29.79 in 10.0 mi SW 4.6 mph - N/A   Overcast
2:55 PM 55.4 °F - 39.2 °F 54% 29.78 in 10.0 mi WSW 4.6 mph - N/A   Overcast
3:15 PM 55.4 °F - 39.2 °F 54% 29.78 in 10.0 mi SW 3.5 mph - N/A   Scattered Clouds
3:35 PM 55.4 °F - 39.2 °F 54% 29.78 in 10.0 mi SSW 3.5 mph - N/A   Scattered Clouds
3:55 PM 55.4 °F - 39.2 °F 54% 29.78 in 10.0 mi Calm Calm - N/A   Scattered Clouds
4:15 PM 53.6 °F - 39.2 °F 58% 29.78 in 10.0 mi SSW 6.9 mph - N/A   Overcast
4:35 PM 51.8 °F - 41.0 °F 67% 29.78 in 10.0 mi SSW 4.6 mph - N/A   Overcast
4:55 PM 51.8 °F - 41.0 °F 67% 29.77 in 10.0 mi SSW 3.5 mph - N/A   Overcast
5:15 PM 51.8 °F - 39.2 °F 62% 29.77 in 10.0 mi Calm Calm - N/A   Mostly Cloudy
5:35 PM 51.8 °F - 39.2 °F 62% 29.78 in 10.0 mi Calm Calm - N/A   Scattered Clouds
5:55 PM 50.0 °F - 39.2 °F 66% 29.78 in 10.0 mi Calm Calm - N/A   Mostly Cloudy
6:15 PM 50.0 °F - 39.2 °F 66% 29.79 in 10.0 mi Calm Calm - N/A   Overcast
6:35 PM 50.0 °F - 39.2 °F 66% 29.79 in 10.0 mi Calm Calm - N/A   Overcast
6:55 PM 50.0 °F - 39.2 °F 66% 29.79 in 10.0 mi Calm Calm - N/A   Overcast
7:15 PM 48.2 °F - 39.2 °F 71% 29.79 in 10.0 mi Calm Calm - N/A   Overcast
7:35 PM 48.2 °F - 39.2 °F 71% 29.80 in 10.0 mi Calm Calm - N/A   Overcast
7:55 PM 48.2 °F - 39.2 °F 71% 29.80 in 10.0 mi SSE 3.5 mph - N/A   Overcast
8:15 PM 48.2 °F - 41.0 °F 76% 29.80 in 10.0 mi SSE 3.5 mph - N/A   Mostly Cloudy
8:35 PM 50.0 °F - 41.0 °F 71% 29.79 in 10.0 mi South 3.5 mph - N/A   Scattered Clouds
8:55 PM 50.0 °F - 41.0 °F 71% 29.80 in 10.0 mi South 5.8 mph - N/A   Clear
9:15 PM 48.2 °F - 41.0 °F 76% 29.81 in 10.0 mi South 3.5 mph - N/A   Mostly Cloudy
9:35 PM 48.2 °F - 41.0 °F 76% 29.81 in 10.0 mi South 4.6 mph - N/A   Overcast
9:55 PM 48.2 °F - 41.0 °F 76% 29.81 in 10.0 mi South 3.5 mph - N/A   Overcast
10:15 PM 48.2 °F - 41.0 °F 76% 29.81 in 10.0 mi South 3.5 mph - N/A   Overcast
10:35 PM 48.2 °F - 41.0 °F 76% 29.81 in 10.0 mi South 5.8 mph - N/A   Overcast
10:55 PM 48.2 °F - 41.0 °F 76% 29.81 in 10.0 mi South 4.6 mph - N/A   Overcast
11:15 PM 48.2 °F - 41.0 °F 76% 29.81 in 10.0 mi South 5.8 mph - N/A   Overcast
11:35 PM 46.4 °F - 41.0 °F 81% 29.82 in 10.0 mi Calm Calm - N/A   Overcast
11:55 PM 46.4 °F - 41.0 °F 81% 29.81 in 10.0 mi Calm Calm - N/A   Overcast